DW4212 Weather Reports


Display with metric or nautical units.
time (UTC)temp
F
wind
direction
speed
MPH
gust
MPH
rain 1hr
in
rain 24hr
in
rain mn
in
humidity
%
barometer
mb
20260509151928 57 121 0.0 4.0 0.00 0.55 0.05 79 1010.7
20260509150918 57 109 0.0 6.0 0.00 0.55 0.05 81 1010.6
20260509145922 56 161 1.0 7.0 0.00 0.55 0.05 81 1010.7
20260509144934 56 170 1.0 6.0 0.00 0.55 0.05 83 1010.9
20260509143944 56 169 0.0 6.0 0.00 0.55 0.05 85 1010.9
20260509142948 55 158 0.0 7.0 0.00 0.55 0.05 88 1010.9
20260509141935 55 176 1.0 11.0 0.08 0.55 0.05 89 1010.9
20260509140945 54 175 2.0 9.0 0.16 0.55 0.05 90 1011.0
20260509135951 53 161 3.0 9.0 0.16 0.55 0.05 90 1011.4
20260509134940 53 171 4.0 10.0 0.24 0.55 0.05 90 1011.2
20260509133949 52 219 1.0 7.0 0.24 0.55 0.05 90 1011.4
20260509132950 51 190 1.0 8.0 0.24 0.55 0.05 89 1011.5
20260509130937 51 257 1.0 6.0 0.08 0.39 0.02 87 1011.3
20260509125940 51 257 0.0 12.0 0.08 0.39 0.02 87 1011.3
20260509124949 52 256 2.0 10.0 0.00 0.31 0.00 86 1011.4
20260509123939 52 265 3.0 12.0 0.00 0.31 0.00 85 1011.3
20260509122942 53 258 4.0 10.0 0.00 0.31 0.00 84 1011.3
20260509121934 54 252 2.0 8.0 0.00 0.31 0.00 84 1011.2
20260509120943 55 262 4.0 8.0 0.00 0.31 0.00 82 1011.1
20260509115946 55 248 3.0 9.0 0.00 0.71 0.00 81 1011.1
20260509114934 55 196 2.0 12.0 0.00 0.71 0.00 82 1011.0
20260509113943 55 196 3.0 17.0 0.00 0.71 0.00 82 1011.3
20260509112946 55 177 6.0 15.0 0.00 0.71 0.00 80 1011.1
20260509111939 55 196 4.0 13.0 0.00 0.71 0.00 81 1011.0
20260509110948 56 166 5.0 12.0 0.00 0.71 0.00 80 1010.9
20260509105949 55 168 5.0 11.0 0.00 1.22 0.00 83 1010.8
20260509104938 54 185 2.0 9.0 0.00 1.22 0.00 86 1011.0
20260509103947 53 181 1.0 12.0 0.00 1.22 0.00 87 1011.2
20260509102946 52 159 1.0 5.0 0.00 1.22 0.00 90 1011.0
20260509101938 51 172 0.0 7.0 0.00 1.22 0.00 89 1011.1
20260509100947 51 171 0.0 6.0 0.00 1.22 0.00 90 1011.1
20260509095950 51 181 2.0 9.0 0.00 1.22 0.00 89 1011.1
20260509094938 51 171 0.0 8.0 0.00 1.22 0.00 89 1011.0
20260509093947 52 173 1.0 7.0 0.00 1.22 0.00 89 1010.9
20260509092935 52 171 1.0 11.0 0.00 1.22 0.00 88 1011.1
20260509091943 52 159 4.0 11.0 0.00 1.22 0.00 89 1011.0
20260509090934 52 135 4.0 15.0 0.00 1.22 0.00 89 1011.0
20260509085938 52 172 5.0 13.0 0.00 1.22 0.00 90 1010.8
20260509084946 52 177 3.0 11.0 0.00 1.22 0.00 92 1010.9
20260509083005 50 184 2.0 11.0 0.00 1.22 0.00 92 1011.0
20260509081929 50 190 1.0 9.0 0.00 1.22 0.00 93 1011.0
20260509080916 50 175 1.0 8.0 0.00 1.22 0.00 93 1010.9
20260509075921 50 161 1.0 9.0 0.00 1.26 0.00 92 1011.0
20260509074912 50 204 0.0 4.0 0.00 1.26 0.00 93 1011.0
20260509073924 50 204 0.0 6.0 0.00 1.26 0.00 93 1010.7
20260509072925 49 207 1.0 5.0 0.00 1.26 0.00 93 1010.7
20260509071919 49 207 0.0 4.0 0.00 1.26 0.00 93 1011.1
20260509070929 49 208 0.0 5.0 0.00 1.26 0.00 93 1011.2
20260509065929 49 209 0.0 4.0 0.00 1.26 0.00 93 1011.5
20260509064919 49 210 0.0 0.0 0.00 1.26 0.00 93 1011.4
20260509063914 49 213 0.0 3.0 0.00 1.26 0.00 93 1011.2
20260509062917 49 213 0.0 0.0 0.00 1.26 0.00 93 1011.0
20260509061927 49 213 0.0 0.0 0.00 1.26 0.00 93 1011.0
20260509060917 49 213 0.0 0.0 0.00 1.26 0.00 93 1011.0
20260509055925 49 213 0.0 4.0 0.00 1.26 0.00 93 1011.0
20260509054915 49 213 0.0 2.0 0.00 1.26 0.00 93 1011.1
20260509053926 49 213 1.0 5.0 0.00 1.26 0.00 93 1010.9
20260509052929 49 215 1.0 5.0 0.00 1.26 0.00 93 1010.7
20260509050918 49 223 0.0 0.0 0.00 1.26 0.00 92 1010.3
20260509045923 49 223 0.0 0.0 0.00 1.26 0.00 92 1010.4
20260509044917 49 223 0.0 0.0 0.00 1.26 0.00 92 1010.5
20260509043927 49 223 0.0 0.0 0.00 1.26 0.00 92 1010.2
20260509042911 49 223 0.0 0.0 0.00 1.26 0.00 92 1010.4
20260509041920 49 223 0.0 0.0 0.00 1.26 0.00 92 1010.5
20260509040914 49 224 0.0 0.0 0.00 1.26 0.00 92 1010.5
20260509035918 49 224 0.0 4.0 0.00 1.26 0.00 92 1010.6
20260509034928 49 224 0.0 3.0 0.00 1.26 0.00 92 1010.8
20260509033918 49 229 0.0 2.0 0.00 1.26 0.00 92 1010.8
20260509032927 49 229 0.0 4.0 0.00 1.26 0.00 92 1011.0
20260509031917 49 229 0.0 2.0 0.00 1.26 0.00 92 1011.0
20260509030927 49 229 0.0 0.0 0.00 1.26 0.00 92 1011.0
20260509030010 49 229 0.0 0.0 0.00 1.26 0.00 92 1011.2
20260509024919 49 229 0.0 0.0 0.00 1.26 0.00 92 1011.2
20260509023928 49 229 0.0 0.0 0.00 1.26 0.00 92 1011.2
20260509022912 49 229 0.0 0.0 0.00 1.26 0.00 91 1011.2
20260509021938 49 229 0.0 0.0 0.00 1.26 0.00 91 1011.2
20260509020948 48 229 0.0 0.0 0.00 1.26 0.00 91 1011.4
20260509015935 48 229 0.0 0.0 0.00 1.26 0.00 91 1011.5
20260509014944 48 229 0.0 0.0 0.00 1.26 0.00 91 1011.6
20260509013934 48 229 0.0 0.0 0.00 1.26 0.00 91 1011.7
20260509012933 48 229 0.0 0.0 0.00 1.26 0.00 91 1011.7
20260509011942 48 229 0.0 0.0 0.00 1.26 0.00 91 1011.7
20260509010932 47 229 0.0 0.0 0.00 1.26 0.00 90 1011.9
20260509005940 47 229 0.0 0.0 0.00 1.26 0.00 90 1011.9
20260509004949 47 229 0.0 0.0 0.00 1.26 0.00 90 1012.0
20260509003938 46 229 0.0 0.0 0.00 1.26 0.00 90 1012.1
20260509002941 46 229 0.0 0.0 0.00 1.26 0.00 90 1012.2
20260509000947 46 229 0.0 0.0 0.00 1.26 0.00 90 1012.1
20260508235950 45 229 0.0 0.0 0.00 1.26 0.25 89 1012.1
20260508234938 45 229 0.0 0.0 0.00 1.26 0.25 89 1012.1
20260508233949 45 229 0.0 0.0 0.00 1.26 0.25 89 1012.0
20260508232932 45 229 0.0 0.0 0.00 1.26 0.25 88 1012.1
20260508231945 45 229 0.0 0.0 0.00 1.26 0.25 88 1012.1
20260508230934 46 229 0.0 0.0 0.00 1.26 0.25 88 1012.3
20260508225934 46 229 0.0 0.0 0.00 1.26 0.25 88 1012.3
20260508224943 46 229 0.0 0.0 0.00 1.26 0.25 88 1012.3
20260508223932 46 229 0.0 0.0 0.00 1.26 0.25 88 1012.4
20260508222936 46 229 0.0 0.0 0.00 1.26 0.25 88 1012.4
20260508221949 47 229 0.0 0.0 0.00 1.26 0.25 88 1012.4
20260508220938 47 229 0.0 0.0 0.00 1.26 0.25 87 1012.5
20260508215941 47 229 0.0 0.0 0.00 1.26 0.25 87 1012.6
20260508214949 47 229 0.0 0.0 0.00 1.26 0.25 88 1012.6
20260508213940 47 229 0.0 0.0 0.00 1.26 0.25 88 1012.7
20260508212951 47 229 0.0 0.0 0.00 1.26 0.25 87 1012.7
20260508211940 47 229 0.0 0.0 0.00 1.26 0.25 87 1012.7
20260508210950 48 229 0.0 0.0 0.00 1.26 0.25 86 1012.7
20260508205933 48 229 0.0 0.0 0.00 1.26 0.25 86 1012.8
20260508204921 48 229 0.0 0.0 0.00 1.26 0.25 86 1012.7
20260508203915 49 229 0.0 0.0 0.00 1.26 0.25 85 1012.6
20260508202918 49 229 0.0 0.0 0.00 1.26 0.25 84 1012.5
20260508201922 49 229 0.0 0.0 0.00 1.26 0.25 84 1012.3
20260508200911 50 229 0.0 0.0 0.00 1.26 0.25 83 1012.4
20260508195919 50 229 0.0 0.0 0.00 1.26 0.25 82 1012.3
20260508194929 51 229 0.0 0.0 0.00 1.26 0.25 81 1012.1
20260508193919 52 229 0.0 0.0 0.00 1.26 0.25 80 1012.0
20260508192923 53 229 0.0 0.0 0.00 1.26 0.25 79 1011.9
20260508191917 54 229 0.0 0.0 0.00 1.26 0.25 79 1012.0
20260508190924 55 229 0.0 0.0 0.00 1.26 0.25 79 1011.9
20260508185926 55 229 0.0 0.0 0.00 1.26 0.25 79 1011.8
20260508184920 55 229 0.0 0.0 0.00 1.26 0.25 80 1011.7
20260508183930 54 229 0.0 0.0 0.00 1.26 0.25 81 1011.6
20260508182914 54 229 0.0 0.0 0.00 1.26 0.25 79 1011.5
20260508181922 56 229 0.0 0.0 0.00 1.26 0.25 76 1011.3
20260508180916 56 229 0.0 0.0 0.00 1.26 0.25 73 1011.6
20260508175919 55 229 0.0 0.0 0.00 1.26 0.25 77 1011.6
20260508174928 55 229 0.0 1.0 0.00 1.26 0.25 80 1011.6
20260508173919 54 229 0.0 0.0 0.00 1.26 0.25 82 1011.7
20260508172926 54 229 0.0 0.0 0.00 1.26 0.25 84 1011.7
20260508171915 54 229 0.0 2.0 0.00 1.26 0.25 83 1011.7
20260508170925 55 229 0.0 4.0 0.00 1.26 0.25 84 1011.7
20260508165927 54 229 0.0 0.0 0.00 1.26 0.25 84 1011.7
20260508164920 54 229 0.0 1.0 0.04 1.26 0.25 87 1011.5
20260508163929 53 229 0.0 6.0 0.16 1.26 0.25 88 1011.7
20260508162913 52 281 0.0 0.0 0.31 1.26 0.25 89 1011.6
20260508161922 51 288 1.0 6.0 0.31 1.26 0.25 88 1011.6
20260508160919 51 296 1.0 8.0 0.31 1.26 0.25 87 1011.5
20260508155923 50 265 3.0 8.0 0.31 1.26 0.25 86 1011.7
20260508154911 51 324 4.0 15.0 0.28 1.22 0.24 83 1011.8
20260508153920 54 265 4.0 16.0 0.12 1.06 0.21 83 1011.9
20260508152923 54 170 1.0 5.0 0.00 0.94 0.19 81 1011.7